Location: The Saddle
(36.8333°N, 80.3417°W)
Time: 04:57:38
(UTC-04:00)

ACS3 Solar Sail - Visible Passes

Search period start: 08 May 2026 00:00
Search period end: 18 May 2026 00:00
Orbit: 890 x 951 km, 97.2° (Epoch: 7 May)

Date Brightness Start Highest point End Pass type
(mag) Time Alt. Az. Time Alt. Az. Time Alt. Az.
8 May 3.2 01:25:44 10° NNE 01:29:16 27° ENE 01:29:16 27° ENE visible
8 May 2.8 03:08:00 10° N 03:12:45 33° WNW 03:12:45 33° WNW visible
9 May 3.0 01:34:08 10° NNE 01:38:03 33° ENE 01:38:03 33° ENE visible
9 May 2.9 03:16:50 10° NNW 03:21:32 28° WNW 03:21:32 28° WNW visible
10 May 2.7 01:42:37 10° NNE 01:46:51 39° ENE 01:46:51 39° ENE visible
10 May 3.1 03:25:44 10° NNW 03:30:21 24° WNW 03:30:21 24° WNW visible
11 May 2.5 01:51:09 10° NNE 01:55:41 47° NE 01:55:41 47° NE visible
11 May 3.3 03:34:44 10° NNW 03:38:53 20° WNW 03:39:10 20° WNW visible
12 May 2.3 01:59:46 10° NNE 02:04:31 55° NE 02:04:31 55° NE visible
12 May 3.5 03:43:51 10° NNW 03:47:25 17° WNW 03:48:00 16° WNW visible
13 May 2.1 02:08:25 10° NNE 02:13:22 62° NNE 02:13:22 62° NNE visible
13 May 3.7 03:53:10 10° NW 03:55:58 14° WNW 03:56:51 13° WNW visible
14 May 4.0 00:37:49 10° ENE 00:38:44 11° ENE 00:38:44 11° ENE visible
14 May 2.0 02:17:07 10° N 02:22:14 65° N 02:22:14 65° N visible
14 May 3.8 04:02:58 10° NW 04:04:30 11° WNW 04:05:43 10° WNW visible
15 May 3.9 00:45:36 10° NE 00:47:37 14° ENE 00:47:37 14° ENE visible
15 May 2.0 02:25:51 10° N 02:31:06 62° NW 02:31:06 62° NW visible
16 May 3.7 00:53:44 10° NE 00:56:31 18° ENE 00:56:31 18° ENE visible
16 May 2.1 02:34:40 10° N 02:40:00 54° NW 02:40:00 54° NW visible
17 May 3.4 01:02:02 10° NE 01:05:25 22° ENE 01:05:25 22° ENE visible
17 May 2.3 02:43:31 10° N 02:48:55 46° WNW 02:48:55 46° WNW visible
